Zurück zum Katalog

COSMOS 2499 DEB

AktivPO
NORAD 60611·DEBRIS·🇷🇺 Russia

Gestartet May 23, 2014 von Plesetsk Cosmodrome

Loading…

Nächste Überflüge (nächste 24 Stunden)

TLE

AlterndSource: Space-Track

Epoche: Sep 6, 2026, 01:36 UTC

1 60611U 14028BX  26249.06696951  .00006231  00000-0  16857-1 0  9994
2 60611  82.5388 184.6837 0308101  58.8850 304.2101 12.98828178157350

Verfolge COSMOS 2499 DEB in Echtzeit mit AllMySat

Download on the App Store